AirNav   Jet Aviation Boston
 
 358 users online  

67T Old Hoppe Place Airport
Agua Dulce, Texas, USA

GOING TO AGUA DULCE?


FAA INFORMATION EFFECTIVE 29 MARCH 2018

Location

FAA Identifier: 67T
Lat/Long: 27-48-00.8800N / 097-51-03.6750W
27-48.014667N / 097-51.061250W
27.8002444 / -97.8510208
(estimated)
Elevation: 96.3 ft. / 29 m (estimated)
Variation: 06E (2000)
From city: 3 miles E of AGUA DULCE, TX
Time zone: UTC -5 (UTC -6 during Standard Time)
Zip code: 78330

Airport Operations

Airport use: Open to the public
Activation date: 01/1997
Control tower: no
ARTCC: HOUSTON CENTER
FSS: SAN ANGELO FLIGHT SERVICE STATION
NOTAMs facility: SJT (NOTAM-D service available)
Attendance: MON-FRI 0800-1630
Wind indicator: lighted
Segmented circle: no
Lights: FOR LIRL RY 16/34, REIL AND VASI RYS 16 & 34 PRIOR ARRANGEMENTS REQUIRED. CALL 361-998-2516.
Beacon: white-green (lighted land airport)
BEACON DUSK-0100.
Landing fee: yes

Airport Communications

CTAF: 122.9
WX AWOS-3 at RBO (9 nm E): 118.175 (361-767-1982)
WX ASOS at ALI (10 nm W): 119.225 (361-668-0069)
WX AWOS-3P at IKG (18 nm SW): 119.075 (361-592-9152)
WX ASOS at CRP (19 nm E): PHONE 361-289-0191

Nearby radio navigation aids

VOR radial/distance  VOR name  Freq  Var
ALIr062/(9.7)ALICE VOR114.5006E
CRPr245/22.4CORPUS CHRISTI VORTAC115.5009E
NGPr277/30.3TRUAX VORTAC114.0006E

Airport Services

Parking: hangars and tiedowns

Runway Information

Runway 16/34

Dimensions: 2764 x 30 ft. / 842 x 9 m
Surface: concrete, in good condition
RYS 16 AND 34 HAVE 40 FT BLAST PADS 30 FT WIDE.
Runway edge lights: low intensity
RY LGTS SURROUNDED BY 18 INCH HIGH STAKES AND RAZOR WIRE.
Runway edge markings: NRS 30 FT LONG.
RUNWAY 16  RUNWAY 34
Latitude: 27-48.238167N27-47.791167N
Longitude: 097-51.112500W097-51.010000W
Elevation: 94.7 ft.96.3 ft.
Traffic pattern: leftleft
Markings: basic, in good conditionbasic, in good condition
Visual slope indicator: 2-box VASI on left (3.00 degrees glide path)
VASI SURROUNDED BY 2 FT HIGH RAZOR WIRE.
2-box VASI on left (3.75 degrees glide path)
VASI SURROUNDED BY 2 FT HIGH RAZOR WIRE.
Runway end identifier lights: yes
REIL ARE NON-FRANGIBLE AND ARE SURROUNDED WITH 18 INCH RAZOR WIRE.
yes
REIL ARE NON-FRANGIBLE AND ARE SURROUNDED WITH 18 INCH HIGH RAZOR WIRE.
Touchdown point: yes, no lightsyes, no lights
Obstructions: none
+15 FT DIRT ROAD 143 FT FM RY CNTRLN 0 FT R/L.
15 ft. tree, 345 ft. from runway, 161 ft. left of centerline, 9:1 slope to clear
+8 FT FENCE 0-10 FT FM RY THLD 90-125 FT R.

Airport Ownership and Management from official FAA records

Ownership: Privately-owned
Owner: DOUG & BECKY WILLIAMS
3673 CR 93
AGUA DULCE, TX 78330
Phone 361-998-2516
Manager: DOUG WILLIAMS
3673 CR 93
AGUA DULCE, TX 78330
Phone 361-998-2516

Airport Operational Statistics

Aircraft based on the field: 13
Single engine airplanes: 7
Multi engine airplanes: 2
Jet airplanes: 3
Helicopters: 1
    
Aircraft operations: avg 83/month *
100% local general aviation
* for 12-month period ending 13 April 2017

Additional Remarks

WILDLIFE ON AND IN VICINITY OF THE AIRPORT.

Instrument Procedures

There are no published instrument procedures at 67T.

Some nearby airports with instrument procedures:

KRBO - Nueces County Airport (9 nm E)
KALI - Alice International Airport (10 nm W)
KNOG - Orange Grove Naval Auxiliary Field (12 nm NW)
KIKG - Kleberg County Airport (18 nm SW)
KNQI - Kingsville Naval Air Station (18 nm S)
KCRP - Corpus Christi International Airport (19 nm E)
 
Loc | Ops | Rwys | IFR | FBO | Links
Com | Nav | Svcs | Stats | Notes

AirNav Hotels Sweepstakes
 
Area around 67T (Old Hoppe Place Airport)
 
Road maps at: MapQuest Bing Google
 
Aerial photo
No photo
 
Sectional chart

 
Airport distance calculator
Flying to Old Hoppe Place Airport? Find the distance to fly.

From to 67T

Sunrise and sunset
Times for 21-Apr-2018
 Local
(UTC-5)
 Zulu
(UTC)
Morning civil twilight06:3711:37
Sunrise07:0212:02
Sunset19:5900:59
Evening civil twilight20:2301:23

Current date and time
Zulu (UTC)  21-Apr-2018 09:54:07
Local (UTC-5)  21-Apr-2018 04:54:07
 
METAR
KRBO 
9nm E 
210935Z AUTO 12005KT 10SM SCT021 SCT027 19/18 A2992 RMK AO2 T01900175
KALI 
10nm SW 
210913Z AUTO 10003KT 10SM BKN024 BKN029 18/17 A2991 RMK AO2 T01830172
KNOG 
12nm NW 
210856Z AUTO 11005KT 8SM CLR 18/18 A2993 RMK AO2 SLP114 T01830178 56013
KIKG 
18nm SW 
210935Z AUTO 00000KT 10SM BKN023 19/19 A2991 RMK AO2 T01900190
KNQI 
18nm S 
210920Z AUTO 11004KT 10SM BKN025 19/18 A2991 RMK AO2 T01940178
KCRP 
19nm E 
210923Z 13009KT 10SM BKN028 BKN250 20/18 A2992 RMK AO2 T02000183
TAF
KALI 
10nm SW 
210529Z 2106/2206 14009KT P6SM BKN015 BKN025 FM211500 15015KT P6SM VCSH BKN015 OVC025 FM212000 13012KT P6SM BKN025 FM220300 VRB04KT 5SM BR BKN012
KNQI 
18nm S 
2107/2207 14010KT 9999 VCSH BKN020 OVC040 QNH2990INS TEMPO 2107/2112 8000 -RA BECMG 2116/2118 6000 SHRA VCTS BKN015 OVC030CB QNH2988INS BECMG 2202/2204 14009KT 8000 BR BKN015 OVC030 QNH2989INS AUTOMATED SENSOR METWATCH 2107 TIL 2216 T18/2111Z T26/2119Z AMD 0730 FN00162
KCRP 
19nm E 
210529Z 2106/2206 12010KT P6SM SCT015 FM210800 13011KT P6SM BKN015 FM211500 15017G23KT P6SM SCT018 BKN022 FM220100 16011KT 6SM BR BKN012
NOTAMs
Click for the latest NOTAMs
NOTAMs are issued by the DoD/FAA and will open in a separate window not controlled by AirNav.

 

 
 

Would you like to see your business listed on this page?

 If your business provides an interesting product or service to pilots, flight crews, aircraft, or users of the Old Hoppe Place Airport, you should consider listing it here.  To start the listing process, click on the button below
 
Add a business
 

Other Pages about Old Hoppe Place Airport

Update a link
 
Copyright © AirNav, LLC. All rights reserved. Privacy Policy  Contact